Philip, SD

10:14 PM MDT on July 23, 2017 (GMT -0600)
Philip

Weather History for KPHP - October, 2013

Change the Weather History Date:

Thursday, October 31, 2013

  Actual Average Record
Temperature  
Mean Temperature 42 °F 42 °F  
Max Temperature 53 °F 56 °F 84 °F (1999)
Min Temperature 31 °F 28 °F -1 °F (1991)
Degree Days  
Heating Degree Days 23 23  
Month to date heating degree days 520 517  
Since 1 July heating degree days 583 703  
Cooling Degree Days 0 0  
Month to date cooling degree days 0 4  
Year to date cooling degree days 945 818  
Moisture  
Dew Point 33 °F    
Average Humidity 70    
Maximum Humidity 92    
Minimum Humidity 48    
Precipitation  
Precipitation T in 0.03 in 0.28 in (2000)
Month to date precipitation 3.87 1.43  
Year to date precipitation 14.86 16.30  
Sea Level Pressure  
Sea Level Pressure 29.67 in    
Wind  
Wind Speed 14 mph (WNW)    
Max Wind Speed 31 mph    
Max Gust Speed 39 mph    
Visibility 10 miles    
Events Rain    
T = Trace of Precipitation, MM = Missing Value Source: NWS Daily Summary

Daily Weather History Graph

Daily Weather History Graph

Search for Another Location

Airport or City:

Trip Planner

Search our weather history database for the weather conditions in past years. The results will help you decide how hot, cold, wet, or windy it might be!

Date:

Astronomy

Oct. 31, 2013 Rise Set
Actual Time 7:22 AM MDT 5:37 PM MDT
Civil Twilight 6:51 AM MDT 6:07 PM MDT
Nautical Twilight 6:17 AM MDT 6:41 PM MDT
Astronomical Twilight 5:44 AM MDT 7:14 PM MDT
Moon 4:07 AM MDT (10/31) 4:01 PM MDT (10/31)
Length of Visible Light 11h 15m
Length of Day
10h 15m
Waning Crescent, 9% of the Moon is Illuminated
Oct 31
Waning Crescent
Nov 3
New
Nov 9
First Quarter
Nov 17
Full
Nov 25
Last Quarter

Hourly Weather History & Observations

Time (MDT) Temp. Windchill Dew Point Humidity Pressure Visibility Wind Dir Wind Speed Gust Speed Precip Events Conditions
12:55 AM 34.0 °F 28.0 °F 30.9 °F 89% 29.74 in 10.0 mi WSW 6.9 mph - N/A   Overcast
1:55 AM 34.0 °F 26.6 °F 30.9 °F 89% 29.73 in 10.0 mi West 9.2 mph - N/A   Clear
2:55 AM 33.1 °F 27.7 °F 30.0 °F 89% 29.72 in 10.0 mi West 5.8 mph - N/A   Mostly Cloudy
3:55 AM 33.1 °F 26.9 °F 30.0 °F 89% 29.70 in 10.0 mi West 6.9 mph - N/A   Scattered Clouds
4:55 AM 32.0 °F 23.0 °F 30.0 °F 92% 29.70 in 10.0 mi West 11.5 mph - N/A   Clear
5:55 AM 33.1 °F 26.1 °F 30.0 °F 89% 29.70 in 10.0 mi West 8.1 mph - N/A   Clear
6:55 AM 32.0 °F 25.6 °F 28.9 °F 88% 29.70 in 10.0 mi West 6.9 mph - N/A   Clear
7:55 AM 34.0 °F 26.0 °F 28.9 °F 82% 29.70 in 10.0 mi West 10.4 mph - N/A   Clear
8:55 AM 39.0 °F 31.0 °F 32.0 °F 76% 29.69 in 10.0 mi WNW 13.8 mph - N/A   Clear
9:55 AM 44.1 °F 37.1 °F 34.0 °F 68% 29.68 in 10.0 mi WNW 15.0 mph 24.2 mph N/A   Clear
10:55 AM 48.0 °F - 32.0 °F 54% 29.66 in 10.0 mi NW 21.9 mph 33.4 mph N/A   Clear
11:55 AM 50.0 °F - 32.0 °F 50% 29.66 in 10.0 mi NW 24.2 mph 28.8 mph N/A   Clear
12:55 PM 51.1 °F - 32.0 °F 48% 29.64 in 10.0 mi NW 27.6 mph 39.1 mph N/A   Clear
1:55 PM 50.0 °F - 33.1 °F 52% 29.62 in 10.0 mi NW 21.9 mph 35.7 mph N/A   Mostly Cloudy
2:55 PM 51.1 °F - 37.0 °F 59% 29.62 in 10.0 mi WNW 13.8 mph - N/A   Mostly Cloudy
3:55 PM 50.0 °F - 36.0 °F 59% 29.62 in 10.0 mi WNW 15.0 mph - N/A   Mostly Cloudy
4:55 PM 51.1 °F - 35.1 °F 54% 29.63 in 10.0 mi WNW 13.8 mph - N/A   Overcast
5:55 PM 48.9 °F - 35.1 °F 59% 29.62 in 10.0 mi West 8.1 mph - N/A   Overcast
6:55 PM 46.0 °F 41.9 °F 33.1 °F 61% 29.65 in 10.0 mi West 8.1 mph - N/A   Overcast
7:55 PM 48.0 °F - 34.0 °F 58% 29.65 in 10.0 mi WNW 10.4 mph - N/A   Overcast
8:55 PM 50.0 °F - 34.0 °F 54% 29.65 in 10.0 mi NW 15.0 mph - N/A   Overcast
9:55 PM 48.9 °F - 34.0 °F 56% 29.66 in 10.0 mi WNW 11.5 mph - N/A   Overcast
10:55 PM 46.0 °F 41.0 °F 35.1 °F 66% 29.68 in 10.0 mi WNW 10.4 mph - N/A   Overcast
11:55 PM 45.0 °F 37.9 °F 37.9 °F 76% 29.70 in 10.0 mi NW 16.1 mph 28.8 mph 0.00 in Rain Light Rain